Date,TemperatureHighF,TemperatureAvgF,TemperatureLowF,DewpointHighF,DewpointAvgF,DewpointLowF,HumidityHigh,HumidityAvg,HumidityLow,PressureMaxIn,PressureMinIn,WindSpeedMaxMPH,WindSpeedAvgMPH,GustSpeedMaxMPH,PrecipitationSumIn
2013-3-1,45,27,9,-100,-100,-100,0,0,100,0.00,40.00,0,-999,0,0.00
2013-3-2,48,36,20,-100,-100,-100,0,0,100,0.00,40.00,0,-999,0,0.01
2013-3-3,41,34,25,-100,-100,-100,0,0,100,0.00,40.00,0,-999,0,0.01
2013-3-4,22,14,-4,-100,-100,-100,0,0,100,0.00,40.00,0,-999,0,0.00
2013-3-5,45,20,-8,-100,-100,-100,0,0,100,0.00,40.00,0,-999,0,0.01
2013-3-6,43,33,23,-100,-100,-100,0,0,100,0.00,40.00,0,-999,0,0.01
2013-3-7,42,32,26,-100,-100,-100,0,0,100,0.00,40.00,0,-999,0,0.01
2013-3-8,38,31,25,-100,-100,-100,0,0,100,0.00,40.00,0,-999,0,0.00
2013-3-9,28,25,17,-100,-100,-100,0,0,100,0.00,40.00,0,-999,0,0.01
2013-3-10,45,26,5,-100,-100,-100,0,0,100,0.00,40.00,0,-999,0,0.00
2013-3-11,42,30,14,-100,-100,-100,0,0,100,0.00,40.00,0,-999,0,0.01
2013-3-12,41,26,7,-100,-100,-100,0,0,100,0.00,40.00,0,-999,0,0.00
2013-3-13,51,42,32,-100,-100,-100,0,0,100,0.00,40.00,0,-999,0,0.01
2013-3-14,53,44,37,-100,-100,-100,0,0,100,0.00,40.00,0,-999,0,0.01
2013-3-15,53,42,30,-100,-100,-100,0,0,100,0.00,40.00,0,-999,0,0.00
2013-3-16,44,33,23,-100,-100,-100,0,0,100,0.00,40.00,0,-999,0,0.00
2013-3-17,33,24,13,-100,-100,-100,0,0,100,0.00,40.00,0,-999,0,0.01
2013-3-18,29,22,9,-100,-100,-100,0,0,100,0.00,40.00,0,-999,0,0.00
2013-3-19,36,25,11,-100,-100,-100,0,0,100,0.00,40.00,0,-999,0,0.01
2013-3-20,42,32,13,-100,-100,-100,0,0,100,0.00,40.00,0,-999,0,0.01
2013-3-21,37,28,15,-100,-100,-100,0,0,100,0.00,40.00,0,-999,0,0.01
2013-3-22,20,14,6,-100,-100,-100,0,0,100,0.00,40.00,0,-999,0,0.01
2013-3-23,18,9,-2,-100,-100,-100,0,0,100,0.00,40.00,0,-999,0,0.03
2013-3-24,19,4,-12,-100,-100,-100,0,0,100,0.00,40.00,0,-999,0,0.01
2013-3-25,33,15,-10,-100,-100,-100,0,0,100,0.00,40.00,0,-999,0,0.01
2013-3-26,41,27,11,-100,-100,-100,0,0,100,0.00,40.00,0,-999,0,0.01
2013-3-27,44,28,12,-100,-100,-100,0,0,100,0.00,40.00,0,-999,0,0.01
2013-3-28,48,34,18,-100,-100,-100,0,0,100,0.00,40.00,0,-999,0,0.01
2013-3-29,49,42,29,-100,-100,-100,0,0,100,0.00,40.00,0,-999,0,0.01
2013-3-30,44,35,23,-100,-100,-100,0,0,100,0.00,40.00,0,-999,0,0.01
2013-3-31,52,38,21,-100,-100,-100,0,0,100,0.00,40.00,0,-999,0,0.00